Location: Dealu Mare
(46.0500°N, 22.8167°E)
Time: 21:43:31
(UTC+00:00)

RUBIN 8/PSLV - Pass Details

Date: 15 January 2026
Orbit: 593 x 628 km, 98.1° (Epoch: 10 February)

Event Time Altitude Azimuth Distance (km) Brightness Sun altitude
Rises 04:30:18 0° 9° (N) 2,843 7.9 -16.3°
Reaches altitude 10° 04:32:30 10° 5° (N) 1,936 7.0 -16.0°
Maximum altitude 04:36:36 56° 288° (WNW) 711 4.5 -15.3°
Drops below altitude 10° 04:40:41 10° 210° (SSW) 1,927 6.9 -14.6°
Sets 04:42:52 0° 206° (SSW) 2,828 7.8 -14.2°
